NC9W-13 Weather Reports


time (UTC)temp
C
wind
direction
speed
KPH
gust
KPH
rain 1hr
cm
rain 24hr
cm
rain mn
cm
humidity
%
barometer
mb
20260502210503 11 210 0.0 6.4 0.00 0.00 0.00 63 1015.9
20260502210218 11 210 0.0 6.4 0.00 0.00 0.00 63 1015.9
20260502205503 12 210 0.0 3.2 0.00 0.00 0.00 63 1016.0
20260502205218 12 210 0.0 3.2 0.00 0.00 0.00 62 1016.0
20260502204503 12 210 0.0 3.2 0.00 0.00 0.00 61 1016.0
20260502204218 12 210 0.0 6.4 0.00 0.00 0.00 61 1016.0
20260502203503 12 210 0.0 6.4 0.00 0.00 0.00 60 1016.0
20260502203003 12 210 0.0 6.4 0.00 0.00 0.00 59 1016.0
20260502202503 13 210 3.2 9.7 0.00 0.00 0.00 58 1016.0
20260502202003 13 210 3.2 9.7 0.00 0.00 0.00 55 1016.0
20260502201503 13 210 0.0 6.4 0.00 0.00 0.00 55 1016.0
20260502201003 14 210 0.0 3.2 0.00 0.00 0.00 58 1016.1
20260502200503 14 210 0.0 3.2 0.00 0.00 0.00 58 1016.1
20260502200003 13 210 3.2 9.7 0.00 0.00 0.00 55 1016.0
20260502195503 13 210 3.2 9.7 0.00 0.00 0.00 56 1016.1
20260502195003 13 210 0.0 9.7 0.00 0.00 0.00 58 1016.3
20260502194503 13 210 3.2 9.7 0.00 0.00 0.00 57 1016.3
20260502194003 13 210 0.0 6.4 0.00 0.00 0.00 57 1016.2
20260502193503 12 210 0.0 3.2 0.00 0.00 0.00 60 1016.2
20260502193218 12 210 0.0 6.4 0.00 0.00 0.00 59 1016.3
20260502192717 12 210 0.0 6.4 0.00 0.00 0.00 60 1016.4
20260502192003 12 210 3.2 6.4 0.00 0.00 0.00 62 1016.5
20260502191503 11 210 3.2 6.4 0.00 0.00 0.00 63 1016.5
20260502191217 11 210 3.2 6.4 0.00 0.00 0.00 63 1016.5
20260502190503 11 210 0.0 3.2 0.00 0.00 0.00 63 1016.6
20260502190004 11 210 3.2 6.4 0.00 0.00 0.00 63 1016.6
20260502185503 11 210 3.2 6.4 0.00 0.00 0.00 63 1016.7
20260502185217 11 210 3.2 6.4 0.00 0.00 0.00 62 1016.7
20260502184503 11 210 3.2 6.4 0.00 0.00 0.00 65 1016.7
20260502184003 11 210 3.2 6.4 0.00 0.00 0.00 64 1016.7
20260502183718 11 210 3.2 6.4 0.00 0.00 0.00 64 1016.7
20260502183003 11 210 3.2 6.4 0.00 0.00 0.00 63 1016.6
20260502182718 11 210 3.2 6.4 0.00 0.00 0.00 63 1016.7
20260502182003 12 210 0.0 6.4 0.00 0.00 0.00 62 1016.8
20260502181503 12 210 0.0 6.4 0.00 0.00 0.00 63 1016.7
20260502181003 12 210 0.0 6.4 0.00 0.00 0.00 64 1016.7
20260502180503 12 210 0.0 6.4 0.00 0.00 0.00 63 1016.8
20260502180217 12 210 0.0 6.4 0.00 0.00 0.00 63 1016.7
20260502170503 12 210 0.0 3.2 0.00 0.00 0.00 60 1017.0
20260502164003 13 210 0.0 3.2 0.00 0.00 0.00 58 1017.1
20260502163503 13 210 0.0 6.4 0.00 0.00 0.00 57 1017.1
20260502163003 13 210 0.0 6.4 0.00 0.00 0.00 60 1017.1
20260502162503 13 210 0.0 3.2 0.00 0.00 0.00 58 1017.2
20260502162003 13 210 0.0 6.4 0.00 0.00 0.00 57 1017.3
20260502161503 13 210 0.0 6.4 0.00 0.00 0.00 59 1017.3
20260502161003 13 210 0.0 6.4 0.00 0.00 0.00 58 1017.3
20260502160503 13 210 0.0 6.4 0.00 0.00 0.00 60 1017.3
20260502151503 13 210 0.0 3.2 0.00 0.00 0.00 59 1017.2
20260502151003 13 210 0.0 6.4 0.00 0.03 0.00 63 1017.2
20260502150503 13 210 0.0 6.4 0.00 0.03 0.00 64 1017.2
20260502130718 7 210 3.2 9.7 0.00 0.03 0.00 78 1016.8
20260502130217 7 210 3.2 9.7 0.00 0.03 0.00 78 1016.8
20260502123503 7 210 0.0 9.7 0.00 0.03 0.00 82 1016.6
20260502123003 7 210 3.2 9.7 0.00 0.03 0.00 84 1016.6
20260502122503 6 210 3.2 6.4 0.00 0.03 0.00 85 1016.4
20260502122003 6 210 0.0 6.4 0.00 0.03 0.00 86 1016.4
20260502121503 6 210 0.0 6.4 0.00 0.03 0.00 87 1016.4
20260502121003 6 210 0.0 6.4 0.00 0.03 0.00 88 1016.4
20260502120503 6 210 0.0 6.4 0.00 0.03 0.00 90 1016.5
20260502120217 6 210 0.0 6.4 0.00 0.03 0.00 93 1016.6
20260502115503 5 0 0.0 0.0 0.00 0.03 0.00 95 1016.6
20260502115003 4 0 0.0 0.0 0.00 0.03 0.00 95 1016.6
20260502114503 3 0 0.0 0.0 0.00 0.03 0.00 95 1016.7
20260502114003 3 0 0.0 0.0 0.00 0.03 0.00 95 1016.6
20260502113503 3 0 0.0 0.0 0.00 0.03 0.00 94 1016.3
20260502113003 3 0 0.0 0.0 0.00 0.03 0.00 94 1016.3
20260502112503 3 0 0.0 0.0 0.00 0.03 0.00 94 1016.5
20260502112003 3 0 0.0 0.0 0.00 0.03 0.00 94 1016.7
20260502111503 3 0 0.0 0.0 0.00 0.03 0.00 94 1016.6
20260502111216 3 0 0.0 0.0 0.00 0.03 0.00 94 1016.5
20260502110503 3 0 0.0 0.0 0.00 0.03 0.00 94 1016.3
20260502110003 3 0 0.0 0.0 0.00 0.03 0.00 94 1016.2
20260502105503 3 0 0.0 0.0 0.00 0.03 0.00 94 1016.2
20260502105003 3 0 0.0 0.0 0.00 0.03 0.00 94 1016.1
20260502104503 3 0 0.0 0.0 0.00 0.03 0.00 94 1016.1
20260502104003 3 0 0.0 0.0 0.00 0.03 0.00 94 1016.0
20260502103503 3 0 0.0 0.0 0.00 0.03 0.00 94 1016.0
20260502103218 3 0 0.0 0.0 0.00 0.03 0.00 94 1015.9
20260502102503 3 0 0.0 0.0 0.00 0.03 0.00 94 1015.8
20260502102003 3 0 0.0 0.0 0.00 0.03 0.00 94 1015.9
20260502101503 2 0 0.0 0.0 0.00 0.03 0.00 94 1016.0
20260502101003 2 0 0.0 0.0 0.00 0.03 0.00 94 1016.0
20260502100503 2 0 0.0 0.0 0.00 0.03 0.00 94 1016.0
20260502100218 2 0 0.0 0.0 0.00 0.03 0.00 94 1016.0
20260502091503 2 0 0.0 0.0 0.00 0.03 0.00 93 1015.8
20260502091003 2 0 0.0 0.0 0.00 0.03 0.00 93 1016.0
20260502090503 2 0 0.0 0.0 0.00 0.03 0.00 93 1016.0
20260502071503 3 0 0.0 0.0 0.00 0.03 0.00 92 1016.0
20260502071003 3 0 0.0 0.0 0.00 0.03 0.00 92 1015.9
20260502070503 3 0 0.0 0.0 0.00 0.03 0.00 91 1015.9
20260502070003 3 0 0.0 0.0 0.00 0.03 0.00 91 1015.8
20260502065503 3 0 0.0 0.0 0.00 0.03 0.00 91 1015.9
20260502065003 3 0 0.0 0.0 0.00 0.03 0.00 91 1015.9
20260502064503 3 0 0.0 0.0 0.00 0.03 0.00 91 1015.9
20260502064003 3 0 0.0 0.0 0.00 0.03 0.00 91 1016.0
20260502063503 3 0 0.0 0.0 0.00 0.03 0.00 91 1016.0
20260502063003 3 0 0.0 0.0 0.00 0.03 0.00 91 1016.0
20260502062503 3 0 0.0 0.0 0.00 0.03 0.00 90 1016.0
20260502062216 3 0 0.0 0.0 0.00 0.03 0.00 90 1015.9
20260502061503 3 0 0.0 0.0 0.00 0.03 0.00 90 1016.0
20260502061003 3 0 0.0 0.0 0.00 0.03 0.00 90 1016.2
20260502060503 3 0 0.0 0.0 0.00 0.03 0.00 90 1016.2
20260502060003 3 0 0.0 0.0 0.00 0.03 0.00 90 1016.1
20260502055503 3 0 0.0 0.0 0.00 0.03 0.00 89 1016.2
20260502055003 3 0 0.0 0.0 0.00 0.03 0.00 89 1016.2
20260502054503 3 0 0.0 0.0 0.00 0.03 0.00 89 1016.3
20260502054216 3 0 0.0 0.0 0.00 0.03 0.00 89 1016.4
20260502053503 4 0 0.0 0.0 0.00 0.03 0.00 89 1016.4
20260502053003 4 0 0.0 0.0 0.00 0.03 0.00 89 1016.4
20260502052503 4 0 0.0 0.0 0.00 0.03 0.00 89 1016.5
20260502052218 4 0 0.0 0.0 0.00 0.03 0.00 89 1016.5
20260502051503 4 0 0.0 0.0 0.00 0.03 0.00 88 1016.4
20260502051003 4 0 0.0 0.0 0.00 0.03 0.00 88 1016.5
20260502050717 4 0 0.0 0.0 0.00 0.03 0.00 88 1016.5
20260502050003 4 0 0.0 0.0 0.00 0.03 0.00 87 1016.5
20260502045503 4 0 0.0 0.0 0.00 0.03 0.00 87 1016.5
20260502045003 5 0 0.0 0.0 0.00 0.03 0.00 86 1016.5
20260502044717 5 0 0.0 0.0 0.00 0.03 0.00 86 1016.4
20260502044003 5 0 0.0 0.0 0.00 0.03 0.00 86 1016.4
20260502043503 5 0 0.0 0.0 0.00 0.03 0.00 86 1016.4
20260502043218 5 0 0.0 0.0 0.00 0.03 0.00 86 1016.3
20260502042503 5 0 0.0 0.0 0.00 0.03 0.00 86 1016.4
20260502042003 5 0 0.0 0.0 0.00 0.03 0.00 86 1016.5
20260502041503 5 0 0.0 0.0 0.00 0.03 0.00 86 1016.4
20260502041003 5 0 0.0 0.0 0.00 0.03 0.00 86 1016.3
20260502040503 5 0 0.0 0.0 0.00 0.03 0.00 86 1016.4
20260502040003 5 0 0.0 0.0 0.00 0.03 0.00 85 1016.4
20260502035503 5 0 0.0 0.0 0.00 0.03 0.03 84 1016.5
20260502035003 5 0 0.0 0.0 0.00 0.03 0.03 83 1016.6
20260502034503 5 0 0.0 0.0 0.00 0.03 0.03 83 1016.7
20260502034003 6 0 0.0 0.0 0.00 0.03 0.03 82 1016.7
20260502033717 6 0 0.0 0.0 0.00 0.03 0.03 81 1016.7
20260502033003 6 0 0.0 0.0 0.00 0.03 0.03 81 1016.7
20260502032503 6 0 0.0 0.0 0.00 0.03 0.03 81 1016.7
20260502032003 6 0 0.0 0.0 0.00 0.03 0.03 80 1016.7
20260502031716 6 0 0.0 0.0 0.00 0.03 0.03 80 1016.7
20260502031003 6 0 0.0 0.0 0.00 0.03 0.03 79 1016.6
20260502030503 7 0 0.0 0.0 0.00 0.03 0.03 78 1016.6
20260502030003 7 0 0.0 0.0 0.00 0.03 0.03 78 1016.6
20260502025503 7 0 0.0 0.0 0.00 0.03 0.03 77 1016.5
20260502025003 7 0 0.0 0.0 0.00 0.03 0.03 77 1016.5
20260502024503 7 0 0.0 0.0 0.00 0.03 0.03 76 1016.4
20260502024003 7 0 0.0 0.0 0.00 0.03 0.03 74 1016.4
20260502023503 8 0 0.0 0.0 0.00 0.03 0.03 74 1016.3
20260502023003 8 0 0.0 0.0 0.00 0.03 0.03 74 1016.4
20260502022718 8 0 0.0 0.0 0.00 0.03 0.03 74 1016.4
20260502022003 8 0 0.0 0.0 0.00 0.03 0.03 72 1016.4
20260502021718 8 0 0.0 0.0 0.00 0.03 0.03 71 1016.4
20260502021003 8 0 0.0 0.0 0.00 0.03 0.03 69 1016.3
20260502020503 9 0 0.0 0.0 0.00 0.03 0.03 68 1016.4
20260502020003 10 0 0.0 0.0 0.00 0.03 0.03 67 1016.2
20260502015503 10 0 0.0 0.0 0.00 0.03 0.03 66 1016.1
20260502015003 10 0 0.0 0.0 0.00 0.03 0.03 66 1016.1
20260502014503 10 0 0.0 0.0 0.00 0.03 0.03 66 1015.9
20260502014217 11 0 0.0 0.0 0.00 0.03 0.03 66 1015.8
20260502013718 11 0 0.0 0.0 0.00 0.03 0.03 65 1015.8
20260502013003 11 0 0.0 0.0 0.00 0.03 0.03 65 1015.6
20260502012503 11 0 0.0 0.0 0.00 0.03 0.03 65 1015.5
20260502012003 11 0 0.0 0.0 0.00 0.03 0.03 64 1015.3
20260502011503 11 0 0.0 0.0 0.00 0.03 0.03 63 1015.1
20260502011217 11 0 0.0 0.0 0.00 0.03 0.03 64 1015.1
20260502010503 11 0 0.0 0.0 0.00 0.03 0.03 64 1015.0
20260502010003 11 0 0.0 0.0 0.00 0.03 0.03 63 1014.9
20260502005503 11 0 0.0 0.0 0.00 0.03 0.03 62 1014.8
20260502005003 11 0 0.0 0.0 0.00 0.03 0.03 62 1014.8
20260502004503 11 0 0.0 0.0 0.00 0.03 0.03 62 1014.7
20260502004003 11 0 0.0 0.0 0.00 0.03 0.03 61 1014.5
20260502003503 12 0 0.0 0.0 0.00 0.03 0.03 62 1014.4
20260502003003 12 210 0.0 6.4 0.00 0.03 0.03 60 1014.4
20260502002717 12 210 0.0 6.4 0.00 0.03 0.03 61 1014.4
20260502002003 12 210 0.0 9.7 0.00 0.03 0.03 60 1014.3
20260502001503 12 210 0.0 6.4 0.00 0.03 0.03 60 1014.3
20260502001218 12 210 0.0 6.4 0.00 0.03 0.03 59 1014.2
20260502000503 12 210 0.0 6.4 0.00 0.03 0.03 59 1014.1
20260502000003 12 210 0.0 6.4 0.00 0.03 0.03 59 1014.0
20260501235503 12 210 0.0 3.2 0.00 0.03 0.03 58 1014.0
20260501235003 13 210 0.0 3.2 0.00 0.03 0.03 58 1013.9
20260501234503 13 210 0.0 9.7 0.00 0.03 0.03 57 1013.8
20260501234003 13 210 0.0 9.7 0.00 0.03 0.03 56 1013.6
20260501233717 13 210 3.2 12.9 0.00 0.03 0.03 57 1013.5
20260501233003 13 210 0.0 12.9 0.00 0.03 0.03 56 1013.4
20260501232503 13 210 0.0 9.7 0.00 0.03 0.03 54 1013.4
20260501232218 13 210 0.0 9.7 0.00 0.03 0.03 54 1013.4
20260501231503 13 210 0.0 9.7 0.00 0.03 0.03 51 1013.5
20260501231003 13 210 3.2 6.4 0.00 0.03 0.03 51 1013.5
20260501230503 14 210 3.2 9.7 0.00 0.03 0.03 50 1013.4
20260501230003 14 210 3.2 9.7 0.00 0.03 0.03 49 1013.4
20260501225503 14 210 3.2 9.7 0.00 0.03 0.03 50 1013.5
20260501225003 14 210 3.2 9.7 0.00 0.03 0.03 49 1013.4
20260501224717 14 210 3.2 9.7 0.00 0.03 0.03 48 1013.3
20260501224003 15 210 3.2 12.9 0.00 0.03 0.03 49 1013.3
20260501223503 15 210 3.2 12.9 0.00 0.03 0.03 48 1013.2
20260501223003 15 210 3.2 12.9 0.00 0.03 0.03 51 1013.3
20260501222503 15 210 3.2 12.9 0.00 0.03 0.03 50 1013.3
20260501222003 14 210 3.2 9.7 0.00 0.03 0.03 51 1013.3
20260501221503 15 210 3.2 12.9 0.00 0.03 0.03 48 1013.3
20260501221003 15 210 3.2 12.9 0.00 0.03 0.03 47 1013.4
20260501220716 15 210 3.2 9.7 0.00 0.03 0.03 49 1013.4
20260501215503 15 210 3.2 9.7 0.00 0.03 0.03 50 1013.4
20260501215003 15 210 3.2 12.9 0.00 0.03 0.03 48 1013.4
20260501214503 15 210 6.4 12.9 0.00 0.03 0.03 49 1013.4
20260501214217 15 210 6.4 12.9 0.00 0.03 0.03 49 1013.4
20260501213716 15 210 3.2 12.9 0.00 0.03 0.03 50 1013.4
20260501213003 15 210 6.4 12.9 0.00 0.03 0.03 51 1013.4
20260501212503 15 210 6.4 16.1 0.00 0.03 0.03 51 1013.3
20260501212003 15 210 6.4 16.1 0.00 0.03 0.03 52 1013.4
20260501211503 15 210 3.2 9.7 0.00 0.03 0.03 50 1013.3
20260501211217 15 210 3.2 9.7 0.00 0.03 0.03 51 1013.3